GW4873 Weather Reports


Display with metric or nautical units.
time (UTC)temp
F
wind
direction
speed
MPH
gust
MPH
rain 1hr
in
rain 24hr
in
rain mn
in
humidity
%
barometer
mb
20260506073327 59 13 11.0 13.0 0.00 0.00 0.00 80 1010.0
20260506072824 59 47 7.0 15.0 0.00 0.00 0.00 81 1010.2
20260506072321 59 51 7.0 10.0 0.00 0.00 0.00 81 1009.8
20260506071819 58 28 4.0 21.0 0.00 0.00 0.00 81 1010.0
20260506071317 58 136 5.0 13.0 0.00 0.00 0.00 81 1009.8
20260506070813 59 0 6.0 8.0 0.00 0.00 0.00 81 1010.0
20260506070310 59 41 2.0 10.0 0.00 0.00 0.00 81 1009.9
20260506062248 60 1 8.0 13.0 0.00 0.00 0.00 80 1009.9
20260506061743 60 58 6.0 15.0 0.00 0.00 0.00 80 1009.5
20260506061241 60 326 6.0 23.0 0.00 0.00 0.00 79 1009.8
20260506060739 60 26 14.0 21.0 0.00 0.00 0.00 79 1009.9
20260506060236 60 22 12.0 18.0 0.00 0.00 0.00 79 1009.8
20260506051208 62 35 13.0 21.0 0.00 0.00 0.00 78 1009.9
20260506050707 62 38 10.0 21.0 0.00 0.00 0.00 77 1010.0
20260506050203 62 12 6.0 15.0 0.00 0.00 0.00 77 1009.8
20260506044654 63 39 7.0 21.0 0.00 0.00 0.00 77 1009.8
20260506044151 63 16 8.0 18.0 0.00 0.00 0.00 77 1009.5
20260506043648 63 300 1.0 21.0 0.00 0.00 0.00 77 1009.4
20260506043146 64 1 8.0 18.0 0.00 0.00 0.00 77 1009.5
20260506042645 64 110 6.0 15.0 0.00 0.00 0.00 77 1009.5
20260506042143 64 18 9.0 18.0 0.00 0.00 0.00 76 1009.4
20260506041641 64 51 14.0 18.0 0.00 0.00 0.00 76 1009.5
20260506041137 65 5 10.0 18.0 0.00 0.00 0.00 76 1009.6
20260506040635 65 31 13.0 18.0 0.00 0.00 0.00 75 1009.9
20260506040132 65 352 9.0 28.0 0.00 0.00 0.00 75 1010.0
20260506035629 65 353 12.0 23.0 0.00 0.00 0.00 74 1009.6
20260506035125 66 37 13.0 21.0 0.00 0.00 0.00 74 1009.6
20260506034623 66 56 10.0 18.0 0.00 0.00 0.00 73 1009.4
20260506034119 66 340 13.0 18.0 0.00 0.00 0.00 73 1009.4
20260506033617 66 316 7.0 15.0 0.00 0.00 0.00 73 1009.1
20260506033114 66 34 12.0 23.0 0.00 0.00 0.00 72 1008.9
20260506032611 66 13 8.0 21.0 0.00 0.00 0.00 72 1008.9
20260506032107 67 307 5.0 13.0 0.00 0.00 0.00 72 1008.8
20260506031605 67 38 7.0 28.0 0.00 0.00 0.00 72 1008.8
20260506031102 67 343 12.0 21.0 0.00 0.00 0.00 72 1008.6
20260506030600 67 53 2.0 8.0 0.00 0.00 0.00 72 1008.5
20260506030057 67 354 8.0 21.0 0.00 0.00 0.00 72 1008.4
20260506025554 67 88 5.0 21.0 0.00 0.00 0.00 72 1008.5
20260506025050 67 37 18.0 28.0 0.00 0.00 0.00 71 1008.3
20260506024547 67 75 7.0 10.0 0.00 0.00 0.00 71 1008.0
20260506024044 67 30 9.0 21.0 0.00 0.00 0.00 71 1007.9
20260506023539 67 53 13.0 18.0 0.00 0.00 0.00 70 1008.2
20260506023037 68 291 12.0 21.0 0.00 0.00 0.00 70 1007.9
20260506022535 68 17 15.0 21.0 0.00 0.00 0.00 69 1007.8
20260506022032 68 143 5.0 18.0 0.00 0.00 0.00 70 1007.7
20260506021529 68 336 8.0 23.0 0.00 0.00 0.00 70 1007.6
20260506021026 69 9 12.0 31.0 0.00 0.00 0.00 70 1007.9
20260506020524 69 35 5.0 13.0 0.00 0.00 0.00 71 1007.6
20260506020021 69 353 5.0 15.0 0.00 0.00 0.00 70 1007.5
20260506015519 70 49 8.0 21.0 0.00 0.00 0.00 70 1007.4
20260506015015 70 50 11.0 21.0 0.00 0.00 0.00 69 1007.1
20260506014513 70 18 13.0 23.0 0.00 0.00 0.00 69 1006.9
20260506014009 70 43 10.0 18.0 0.00 0.00 0.00 69 1007.0
20260506013507 71 9 7.0 15.0 0.00 0.00 0.00 69 1006.8
20260506013003 71 22 13.0 18.0 0.00 0.00 0.00 69 1006.8
20260506012459 71 4 14.0 21.0 0.00 0.00 0.00 69 1006.3
20260506011956 71 32 1.0 15.0 0.00 0.00 0.00 68 1006.4
20260506011454 72 28 5.0 15.0 0.00 0.00 0.00 68 1006.2
20260506010950 72 29 8.0 13.0 0.00 0.00 0.00 67 1006.1
20260506010449 72 26 11.0 15.0 0.00 0.00 0.00 67 1005.9
20260506005945 73 11 2.0 15.0 0.00 0.00 0.00 66 1006.0
20260506005443 73 17 15.0 18.0 0.00 0.00 0.00 66 1006.3
20260506004938 73 78 3.0 10.0 0.00 0.00 0.00 66 1005.9
20260506004436 73 30 11.0 15.0 0.00 0.00 0.00 65 1005.8
20260506003931 73 299 6.0 13.0 0.00 0.00 0.00 65 1005.8
20260506003429 73 102 5.0 15.0 0.00 0.00 0.00 64 1005.8
20260506002925 74 287 10.0 21.0 0.00 0.00 0.00 64 1005.5
20260506002421 74 298 4.0 8.0 0.00 0.00 0.00 64 1005.5
20260506001917 74 17 12.0 23.0 0.00 0.00 0.00 64 1005.6
20260506001414 75 49 7.0 13.0 0.00 0.00 0.00 64 1005.3
20260506000911 75 44 6.0 15.0 0.00 0.00 0.00 63 1005.3
20260506000409 75 348 8.0 10.0 0.00 0.00 0.00 62 1005.1
20260505235905 75 337 6.0 26.0 0.00 0.00 0.00 61 1005.3
20260505235403 76 322 13.0 18.0 0.00 0.00 0.00 60 1005.3
20260505234900 76 76 12.0 18.0 0.00 0.00 0.00 60 1005.3
20260505234358 76 334 12.0 26.0 0.00 0.00 0.00 59 1005.1
20260505233854 77 57 8.0 23.0 0.00 0.00 0.00 59 1005.3
20260505233352 78 275 12.0 41.0 0.00 0.00 0.00 59 1004.9
20260505232849 79 61 11.0 23.0 0.00 0.00 0.00 59 1004.8
20260505232347 80 228 11.0 15.0 0.00 0.00 0.00 59 1004.9
20260505231843 79 13 12.0 18.0 0.00 0.00 0.00 58 1005.0
20260505231341 79 346 22.0 33.0 0.00 0.00 0.00 59 1004.9
20260505230839 79 332 7.0 15.0 0.00 0.00 0.00 58 1004.7
20260505230336 80 303 10.0 21.0 0.00 0.00 0.00 58 1004.8
20260505225833 81 318 10.0 23.0 0.00 0.00 0.00 59 1004.8
20260505225330 82 334 15.0 23.0 0.00 0.00 0.00 59 1004.7
20260505224825 82 20 15.0 28.0 0.00 0.00 0.00 59 1004.7
20260505224323 85 352 15.0 18.0 0.00 0.00 0.00 56 1004.4
20260505223820 85 335 10.0 23.0 0.00 0.00 0.00 53 1004.3
20260505223317 86 47 4.0 23.0 0.00 0.00 0.00 51 1004.2
20260505222812 85 65 6.0 21.0 0.00 0.00 0.00 50 1004.3
20260505222309 85 330 7.0 18.0 0.00 0.00 0.00 49 1004.2
20260505221806 84 63 10.0 13.0 0.00 0.00 0.00 49 1004.1
20260505221303 85 263 7.0 18.0 0.00 0.00 0.00 48 1004.2
20260505220800 86 323 9.0 18.0 0.00 0.00 0.00 47 1004.0
20260505220257 87 343 9.0 13.0 0.00 0.00 0.00 46 1004.0
20260505215755 87 208 4.0 15.0 0.00 0.00 0.00 46 1003.8
20260505215253 87 344 10.0 23.0 0.00 0.00 0.00 46 1004.0
20260505214750 88 321 13.0 23.0 0.00 0.00 0.00 45 1004.0
20260505214247 93 346 16.0 26.0 0.00 0.00 0.00 42 1003.9
20260505213744 95 258 8.0 13.0 0.00 0.00 0.00 42 1003.9
20260505213242 94 344 4.0 23.0 0.00 0.00 0.00 44 1003.9
20260505212737 93 249 10.0 15.0 0.00 0.00 0.00 44 1003.9
20260505212235 93 245 4.0 13.0 0.00 0.00 0.00 44 1003.9
20260505211732 92 248 4.0 10.0 0.00 0.00 0.00 43 1004.1
20260505211229 91 204 1.0 15.0 0.00 0.00 0.00 46 1003.9
20260505210725 91 179 13.0 18.0 0.00 0.00 0.00 44 1004.1
20260505210222 92 194 4.0 5.0 0.00 0.00 0.00 45 1004.2
20260505205720 92 226 7.0 10.0 0.00 0.00 0.00 44 1004.3
20260505205218 93 237 3.0 15.0 0.00 0.00 0.00 44 1004.5
20260505204714 92 190 12.0 15.0 0.00 0.00 0.00 43 1004.4
20260505204212 91 260 7.0 13.0 0.00 0.00 0.00 45 1004.6
20260505203709 91 212 13.0 18.0 0.00 0.00 0.00 45 1004.5
20260505203206 91 264 7.0 10.0 0.00 0.00 0.00 45 1004.5
20260505202701 92 230 9.0 15.0 0.00 0.00 0.00 45 1004.2
20260505202158 91 276 13.0 28.0 0.00 0.00 0.00 47 1004.6
20260505201654 92 198 10.0 23.0 0.00 0.00 0.00 48 1004.5
20260505201153 91 253 7.0 13.0 0.00 0.00 0.00 46 1004.6
20260505200650 92 273 11.0 26.0 0.00 0.00 0.00 46 1004.7
20260505200147 91 198 9.0 18.0 0.00 0.00 0.00 47 1004.9
20260505195643 91 325 8.0 15.0 0.00 0.00 0.00 48 1004.9
20260505195140 91 217 3.0 15.0 0.00 0.00 0.00 54 1004.9
20260505194637 89 229 10.0 23.0 0.00 0.00 0.00 51 1004.8
20260505194133 90 271 8.0 13.0 0.00 0.00 0.00 50 1004.8
20260505193630 90 213 7.0 15.0 0.00 0.00 0.00 52 1004.8
20260505193127 89 270 12.0 28.0 0.00 0.00 0.00 52 1005.0
20260505192626 89 109 1.0 21.0 0.00 0.00 0.00 52 1004.8
20260505192123 89 214 12.0 18.0 0.00 0.00 0.00 53 1004.8
20260505191621 88 151 8.0 23.0 0.00 0.00 0.00 56 1004.9
20260505191119 88 172 7.0 23.0 0.00 0.00 0.00 56 1004.8
20260505190614 89 216 11.0 21.0 0.00 0.00 0.00 54 1004.6
20260505190109 88 171 8.0 15.0 0.00 0.00 0.00 57 1004.7
20260505185607 88 218 5.0 18.0 0.00 0.00 0.00 57 1004.7
20260505185103 88 223 10.0 23.0 0.00 0.00 0.00 55 1004.8
20260505184559 88 184 11.0 23.0 0.00 0.00 0.00 55 1004.8
20260505184056 87 287 11.0 18.0 0.00 0.00 0.00 56 1004.8
20260505183553 87 252 13.0 26.0 0.00 0.00 0.00 58 1004.8
20260505183051 86 270 15.0 21.0 0.00 0.00 0.00 57 1004.9
20260505182547 87 229 9.0 23.0 0.00 0.00 0.00 59 1004.8
20260505182044 86 256 6.0 13.0 0.00 0.00 0.00 59 1005.1
20260505181540 85 238 15.0 33.0 0.00 0.00 0.00 60 1005.2
20260505181038 85 157 10.0 18.0 0.00 0.00 0.00 61 1005.0
20260505180533 84 212 11.0 31.0 0.00 0.00 0.00 62 1005.0
20260505180032 84 175 13.0 21.0 0.00 0.00 0.00 62 1005.2
20260505175531 84 85 4.0 26.0 0.00 0.00 0.00 62 1005.3
20260505175029 84 230 15.0 23.0 0.00 0.00 0.00 64 1005.2
20260505174526 83 241 8.0 18.0 0.00 0.00 0.00 64 1005.2
20260505174022 83 115 4.0 15.0 0.00 0.00 0.00 64 1005.2
20260505173519 84 202 6.0 18.0 0.00 0.00 0.00 64 1005.5
20260505173015 84 259 10.0 31.0 0.00 0.00 0.00 64 1005.5
20260505172514 83 180 1.0 13.0 0.00 0.00 0.00 67 1005.1
20260505172009 83 293 5.0 21.0 0.00 0.00 0.00 67 1005.6
20260505171505 82 334 5.0 15.0 0.00 0.00 0.00 67 1005.6
20260505171002 82 210 5.0 21.0 0.00 0.00 0.00 67 1005.5
20260505170458 82 210 6.0 23.0 0.00 0.00 0.00 67 1005.2
20260505165954 82 236 9.0 23.0 0.00 0.00 0.00 67 1005.2
20260505165450 82 242 9.0 18.0 0.00 0.00 0.00 67 1005.3
20260505164945 82 167 7.0 23.0 0.00 0.00 0.00 66 1005.1
20260505164442 82 130 5.0 15.0 0.00 0.00 0.00 66 1005.3
20260505163940 82 196 9.0 31.0 0.00 0.00 0.00 67 1005.3
20260505163439 82 185 5.0 28.0 0.00 0.00 0.00 67 1005.3
20260505162937 82 200 21.0 28.0 0.00 0.00 0.00 67 1005.1
20260505162433 82 340 11.0 18.0 0.00 0.00 0.00 67 1005.1
20260505161930 81 137 8.0 38.0 0.00 0.00 0.00 69 1005.1
20260505161426 81 187 12.0 31.0 0.00 0.00 0.00 68 1004.8
20260505160924 80 219 8.0 26.0 0.00 0.00 0.00 69 1005.0
20260505160422 79 267 13.0 23.0 0.00 0.00 0.00 71 1004.8
20260505152858 77 191 10.0 13.0 0.00 0.00 0.00 76 1004.6
20260505152355 77 170 5.0 28.0 0.00 0.00 0.00 75 1004.6
20260505151849 77 116 6.0 15.0 0.00 0.00 0.00 75 1004.9
20260505151346 77 137 13.0 28.0 0.00 0.00 0.00 75 1004.7
20260505150843 77 196 11.0 23.0 0.00 0.00 0.00 75 1004.9
20260505150341 76 102 7.0 31.0 0.00 0.00 0.00 77 1004.9
20260505140310 73 28 7.0 18.0 0.00 0.00 0.00 82 1004.6
20260505130234 71 185 2.0 23.0 0.00 0.00 0.00 86 1004.4
20260505124724 70 129 11.0 21.0 0.00 0.00 0.00 87 1004.5
20260505124221 70 156 6.0 23.0 0.00 0.00 0.00 87 1004.2
20260505123717 70 125 5.0 10.0 0.00 0.00 0.00 87 1004.2
20260505123214 70 191 4.0 10.0 0.00 0.00 0.00 87 1004.1
20260505122710 70 91 6.0 18.0 0.00 0.00 0.00 87 1004.0
20260505122208 70 139 8.0 13.0 0.00 0.00 0.00 87 1004.0
20260505121704 70 241 5.0 13.0 0.00 0.00 0.00 88 1004.0
20260505121201 70 179 1.0 26.0 0.00 0.00 0.00 87 1004.1
20260505120657 69 222 9.0 18.0 0.00 0.00 0.00 87 1004.0
20260505120153 69 178 2.0 13.0 0.00 0.00 0.00 87 1004.2
20260505115646 69 199 8.0 21.0 0.00 0.00 0.00 88 1003.8
20260505115145 69 238 14.0 23.0 0.00 0.00 0.00 88 1003.9
20260505114642 69 195 12.0 18.0 0.00 0.00 0.00 88 1003.4
20260505114138 69 182 6.0 13.0 0.00 0.00 0.00 88 1003.7
20260505113634 69 152 7.0 18.0 0.00 0.00 0.00 88 1003.8
20260505113131 69 201 4.0 13.0 0.00 0.00 0.00 88 1003.8
20260505112627 69 173 6.0 31.0 0.00 0.00 0.00 88 1003.6
20260505112126 69 128 4.0 15.0 0.00 0.00 0.00 88 1003.7
20260505111625 69 194 3.0 21.0 0.00 0.00 0.00 88 1003.7
20260505111121 69 123 8.0 18.0 0.00 0.00 0.00 88 1003.6
20260505110618 69 109 4.0 18.0 0.00 0.00 0.00 88 1003.6
20260505110115 69 187 5.0 10.0 0.00 0.00 0.00 88 1003.6
20260505102050 69 163 1.0 10.0 0.00 0.00 0.00 88 1003.7
20260505101549 69 231 8.0 23.0 0.00 0.00 0.00 87 1003.6
20260505101045 69 219 23.0 28.0 0.00 0.00 0.00 88 1003.7
20260505100542 69 227 6.0 15.0 0.00 0.00 0.00 88 1003.7
20260505100039 69 209 2.0 8.0 0.00 0.00 0.00 87 1003.7
20260505095535 69 147 11.0 21.0 0.00 0.00 0.00 87 1003.5
20260505095031 69 128 0.0 36.0 0.00 0.00 0.00 87 1003.4
20260505094528 69 130 3.0 13.0 0.00 0.00 0.00 87 1003.5
20260505094024 69 138 5.0 15.0 0.00 0.00 0.00 87 1003.8
20260505093521 69 93 5.0 13.0 0.00 0.00 0.00 87 1003.8
20260505093018 69 234 6.0 10.0 0.00 0.00 0.00 86 1003.8
20260505092515 69 130 1.0 18.0 0.00 0.00 0.00 86 1003.8
20260505092014 69 101 2.0 18.0 0.00 0.00 0.00 86 1003.8
20260505091510 69 252 9.0 18.0 0.00 0.00 0.00 86 1003.9
20260505091008 69 269 4.0 10.0 0.00 0.00 0.00 86 1003.7
20260505090506 70 149 2.0 15.0 0.00 0.00 0.00 86 1004.1
20260505090003 70 170 2.0 18.0 0.00 0.00 0.00 85 1003.8
20260505085501 70 147 5.0 21.0 0.00 0.00 0.00 85 1004.1
20260505084959 70 82 14.0 28.0 0.00 0.00 0.00 85 1003.9
20260505084457 70 296 7.0 13.0 0.00 0.00 0.00 84 1004.1
20260505083955 70 112 6.0 18.0 0.00 0.00 0.00 84 1004.1
20260505083452 70 163 6.0 15.0 0.00 0.00 0.00 84 1004.1
20260505082948 70 50 0.0 15.0 0.00 0.00 0.00 83 1004.3
20260505082444 70 186 7.0 15.0 0.00 0.00 0.00 83 1004.2
20260505081941 70 172 10.0 21.0 0.00 0.00 0.00 83 1003.9
20260505081438 70 199 10.0 21.0 0.00 0.00 0.00 82 1004.2
20260505080934 71 126 2.0 13.0 0.00 0.00 0.00 82 1004.0
20260505080430 71 125 8.0 31.0 0.00 0.00 0.00 82 1004.1